Location: Drocourt
(49.0571°N, 1.7669°E)
Time: 23:27:47
(UTC+00:00)

Cosmos 1633 - Pass Details

Date: 09 February 2023
Orbit: 422 x 431 km, 82.5° (Epoch: 01 April)

Event Time Altitude Azimuth Distance (km) Brightness Sun altitude
Rises 18:23:32 0° 211° (SSW) 2,369 6.6 -13.6°
Reaches altitude 10° 18:25:42 10° 222° (SW) 1,511 5.8 -14.0°
Maximum altitude 18:28:39 30° 286° (WNW) 787 4.3 -14.5°
Drops below altitude 10° 18:31:39 10° 350° (N) 1,531 5.1 -14.9°
Sets 18:33:52 0° 2° (N) 2,408 6.0 -15.3°
